Weather Roundup
Issued by NWS

Home | Current Version | Previous Version | Graphics & Text | Print | Product List | Glossary Off
Versions: 1 2 3 4 5 6 7 8 9 10 11 12 13 14 15 16 17 18 19 20 21 22 23 24 25 26 27 28 29 30 31 32 33 34 35 36 37 38 39 40 41 42 43 44 45 46 47 48 49 50

000
NZUS93 KARX 190710
HRRWXR

CURRENT HOURLY OBSERVATIONS ACROSS
MUCH OF THE UPPER MISSISSIPPI VALLEY
NATIONAL WEATHER SERVICE LA CROSSE WI
100 AM CST FRI DEC 19 2014


...SOUTHEAST MINNESOTA...


CITY           SKY/WX    TMP DP  RH WIND       PRES   REMARKS
ROCHESTER      CLOUDY    20  17  88 SE3       30.25F
ROCHESTER/MAYO CLOUDY    21  15  78 CALM      30.26S
WINONA         CLOUDY    27  21  80 W3        30.30S
AUSTIN         CLOUDY    21  19  93 S5        30.25S WCI  15
ALBERT LEA     CLOUDY    25  21  86 S5        30.24F WCI  19
DODGE CENTER   CLOUDY    21  19  93 S5        30.25R WCI  15
PRESTON        CLOUDY    21  17  83 CALM      30.26S
OWATONNA       CLOUDY    21  18  86 SE5       30.25S WCI  15
FARIBAULT      CLOUDY    21  18  86 SE3       30.26S
$$

...ELSEWHERE IN MINNESOTA...


CITY           SKY/WX    TMP DP  RH WIND       PRES   REMARKS
MINNEAPOLIS    CLOUDY    20  15  81 SE5       30.28S WCI  13
INTNL FALLS    CLOUDY    21  17  84 S5        30.19F WCI  15
DULUTH         FLURRIES  21  18  88 S9        30.21S WCI  11
RED WING       CLOUDY    23  18  80 S3        30.28S
REDWOOD FALLS  CLOUDY    24  20  84 SE9       30.22F WCI  14
MANKATO        CLOUDY    23  18  80 SE7       30.25S WCI  15
WORTHINGTON    CLOUDY    27  25  93 S6        30.19F WCI  20
FAIRMONT       CLOUDY    25  19  80 S8        30.22F WCI  16
$$

...SOUTHWEST WISCONSIN...


CITY           SKY/WX    TMP DP  RH WIND       PRES   REMARKS
LA CROSSE      CLOUDY    26  18  71 W3        30.29F
PRAIRIE DU CHI CLOUDY    26  17  68 CALM      30.29S
BOSCOBEL       CLOUDY    26  19  74 CALM      30.29F
LONE ROCK      CLOUDY    29  19  66 CALM      30.29F
PLATTEVILLE    CLOUDY    25  20  83 CALM      30.28S
FORT MC COY    CLOUDY    25  20  82 CALM      30.29F
CAMP DOUGLAS   CLOUDY    24  24  99 W5        30.27F WCI  19
VIROQUA        CLOUDY    23  20  87 CALM      30.25S
WIS DELLS      CLOUDY    25  20  82 CALM      30.27S
$$

...ELSEWHERE IN WISCONSIN...


CITY           SKY/WX    TMP DP  RH WIND       PRES   REMARKS
MILWAUKEE      CLOUDY    28  20  71 W7        30.26S WCI  21
MADISON        CLOUDY    26  20  77 CALM      30.27S
GREEN BAY      PTCLDY    20  17  88 NW5       30.27R WCI  13
EAU CLAIRE     CLOUDY    24  19  81 S3        30.27S
BLACK RVR FLS  CLOUDY    25  20  83 CALM      30.28S
MEDFORD        CLOUDY    19  18  94 NE3       30.23S
WAUSAU         CLEAR     18  15  88 NW5       30.24R WCI  11
WIS RAPIDS     CLOUDY    22  19  89 CALM      30.28S
MARSHFIELD     CLOUDY    24  20  84 CALM      30.25S
RICE LAKE      CLOUDY    23  20  90 S5        30.28R WCI  17
$$

...NORTHEAST IOWA...


CITY           SKY/WX    TMP DP  RH WIND       PRES   REMARKS
DECORAH        CLOUDY    23  18  80 CALM      30.26S
MASON CITY     CLOUDY    23  19  85 S5        30.26F WCI  17
CHARLES CITY   CLOUDY    23  19  86 CALM      30.27S
OELWEIN        CLOUDY    23  19  86 CALM      30.27S
$$

...ELSEWHERE IN IOWA...


CITY           SKY/WX    TMP DP  RH WIND       PRES   REMARKS
DES MOINES     CLOUDY    28  23  81 S3        30.28S
IOWA CITY      CLOUDY    26  20  77 SE5       30.30F WCI  20
FORT DODGE     CLOUDY    27  19  74 S3        30.25S
$$

...NORTHERN ILLINOIS...


CITY           SKY/WX    TMP DP  RH WIND       PRES   REMARKS
CHICAGO-OHARE  CLOUDY    27  22  81 W6        30.26S WCI  20
CHICAGO-MIDWAY FLURRIES  30  22  72 W9        30.26S WCI  22
MOLINE         CLEAR     18  15  88 CALM      30.31R
ROCKFORD       CLOUDY    27  19  72 CALM      30.29F
PEORIA         CLEAR     21  17  84 CALM      30.30S
$$

NOTE: "FAIR" INDICATES FEW OR NO CLOUDS BELOW 12,000 FEET WITH NO
SIGNIFICANT WEATHER AND/OR OBSTRUCTIONS TO VISIBILITY. WIND
SPEEDS ARE IN MILES-PER-HOUR.



USA.gov is the U.S. government's official web portal to all federal, state and local government web resources and services.